FW1908 Weather Reports


Display with metric or nautical units.
time (UTC)temp
F
wind
direction
speed
MPH
gust
MPH
rain 1hr
in
rain 24hr
in
rain mn
in
humidity
%
barometer
mb
20260508045646 57 26 0.0 0.0 0.00 1.78 0.00 93 1014.7
20260508045408 57 26 0.0 0.0 0.00 1.78 0.00 92 1014.7
20260508044647 57 26 0.0 0.0 0.00 1.78 0.00 92 1014.7
20260508044145 57 26 0.0 0.0 0.00 1.78 0.00 92 1014.6
20260508043913 58 26 0.0 0.0 0.00 1.78 0.00 92 1014.5
20260508043143 58 26 0.0 0.0 0.00 1.78 0.00 92 1014.4
20260508042643 58 26 0.0 0.0 0.00 1.78 0.00 93 1014.5
20260508042143 58 26 0.0 0.0 0.00 1.78 0.00 93 1014.4
20260508041641 58 26 0.0 0.0 0.00 1.78 0.00 93 1014.3
20260508041405 58 26 0.0 0.0 0.00 1.78 0.00 93 1014.1
20260508040639 58 26 0.0 0.0 0.00 1.78 0.00 92 1014.4
20260508040139 58 26 0.0 0.0 0.00 1.78 0.00 92 1014.3
20260508035856 58 26 0.0 0.0 0.00 1.78 1.78 92 1014.3
20260508035127 58 26 0.0 0.0 0.00 1.78 1.78 92 1014.4
20260508034621 58 26 0.0 0.0 0.00 1.78 1.78 92 1014.4
20260508034337 58 26 0.0 0.0 0.00 1.78 1.78 92 1014.0
20260508033608 58 26 0.0 0.0 0.00 1.78 1.78 92 1014.1
20260508033103 58 26 0.0 0.0 0.00 1.78 1.78 92 1014.0
20260508032557 58 26 0.0 0.0 0.00 1.78 1.78 92 1014.1
20260508032051 58 26 0.0 0.0 0.00 1.79 1.78 93 1014.3
20260508031551 58 26 0.0 0.0 0.00 1.79 1.78 93 1014.3
20260508031049 58 26 0.0 0.0 0.00 1.80 1.78 93 1014.0
20260508030549 58 26 0.0 0.0 0.00 1.80 1.78 92 1014.0
20260508030044 58 26 0.0 0.0 0.00 1.81 1.78 92 1014.3
20260508025807 59 26 0.0 0.0 0.00 1.81 1.78 92 1014.1
20260508025045 59 26 0.0 1.0 0.00 1.82 1.78 92 1014.0
20260508024543 59 26 0.0 1.0 0.00 1.89 1.78 92 1014.0
20260508024041 59 26 0.0 0.0 0.00 1.91 1.78 92 1013.9
20260508023539 59 26 0.0 0.0 0.00 1.95 1.78 92 1013.7
20260508023258 59 26 0.0 0.0 0.00 1.98 1.78 92 1013.8
20260508022753 59 26 0.0 0.0 0.00 2.00 1.78 92 1013.8
20260508022033 59 26 0.0 1.0 0.00 2.01 1.78 92 1013.7
20260508021530 59 26 0.0 1.0 0.00 2.02 1.78 92 1013.7
20260508021029 59 26 0.0 1.0 0.00 2.03 1.78 92 1013.5
20260508020527 59 26 0.0 2.0 0.00 2.04 1.78 92 1013.4
20260508020025 59 26 0.0 2.0 0.00 2.04 1.78 92 1013.3
20260508015523 59 26 0.0 1.0 0.00 2.04 1.78 92 1013.2
20260508015021 59 23 0.0 1.0 0.00 2.04 1.78 92 1013.1
20260508014744 59 23 0.0 0.0 0.00 2.06 1.78 92 1013.1
20260508014019 59 23 0.0 1.0 0.00 2.07 1.78 92 1012.9
20260508013737 59 23 0.0 1.0 0.00 2.07 1.78 92 1012.8
20260508013017 60 23 0.0 1.0 0.00 2.07 1.78 92 1012.8
20260508012737 60 23 0.0 0.0 0.00 2.07 1.78 92 1012.7
20260508012013 60 23 0.0 0.0 0.00 2.07 1.78 92 1012.7
20260508011511 60 23 0.0 0.0 0.00 2.07 1.78 92 1012.6
20260508011011 60 23 0.0 0.0 0.00 2.08 1.78 92 1012.4
20260508010511 60 23 0.0 0.0 0.00 2.08 1.78 91 1012.4
20260508010229 60 23 0.0 0.0 0.00 2.11 1.78 91 1012.6
20260508005509 60 23 0.0 0.0 0.00 2.14 1.78 91 1012.5
20260508005008 60 23 0.0 2.0 0.01 2.27 1.78 91 1012.3
20260508004508 60 23 0.0 3.0 0.03 2.28 1.78 91 1012.2
20260508004008 60 23 1.0 3.0 0.03 2.28 1.78 91 1011.9
20260508003505 60 23 1.0 5.0 0.04 2.28 1.78 90 1011.8
20260508003005 60 127 1.0 5.0 0.05 2.28 1.78 90 1011.7
20260508002503 60 113 0.0 2.0 0.06 2.28 1.78 90 1011.7
20260508002002 60 113 0.0 2.0 0.07 2.28 1.78 90 1011.7
20260508001732 60 113 1.0 3.0 0.10 2.28 1.78 90 1011.7
20260508001003 61 117 1.0 8.0 0.10 2.28 1.78 89 1011.2
20260508000503 61 80 1.0 8.0 0.10 2.28 1.78 89 1011.2
20260508000003 61 31 1.0 4.0 0.10 2.28 1.78 89 1011.0
20260507235503 61 27 1.0 7.0 0.10 2.28 1.78 88 1010.6
20260507235235 61 115 2.0 9.0 0.09 2.27 1.77 87 1010.3
20260507233503 63 347 2.0 8.0 0.06 2.24 1.74 84 1009.8
20260507233003 63 76 2.0 8.0 0.05 2.23 1.73 83 1009.8
20260507232503 64 23 3.0 7.0 0.04 2.22 1.72 82 1010.1
20260507232001 64 63 3.0 7.0 0.03 2.21 1.72 80 1010.0
20260507231501 65 351 4.0 9.0 0.00 2.18 1.68 77 1010.5
20260507231001 66 337 3.0 9.0 0.00 2.18 1.68 76 1009.7
20260507230720 67 97 3.0 10.0 0.00 2.18 1.68 76 1009.4
20260507230001 67 115 3.0 10.0 0.00 2.18 1.68 75 1009.3
20260507225501 68 52 3.0 9.0 0.00 2.18 1.68 74 1009.5
20260507225001 69 24 3.0 16.0 0.00 2.18 1.68 72 1009.4
20260507224724 70 41 4.0 16.0 0.00 2.18 1.68 71 1009.0
20260507224001 72 340 3.0 8.0 0.00 2.18 1.68 68 1008.9
20260507223502 74 338 3.0 14.0 0.00 2.18 1.68 68 1008.6
20260507223003 75 26 3.0 14.0 0.00 2.18 1.68 65 1008.4
20260507222502 76 10 4.0 9.0 0.00 2.18 1.68 65 1008.4
20260507222223 77 355 4.0 9.0 0.00 2.18 1.68 68 1008.0
20260507221502 77 315 4.0 11.0 0.00 2.18 1.68 67 1007.6
20260507221001 77 275 4.0 11.0 0.00 2.18 1.68 67 1007.5
20260507220501 77 288 3.0 7.0 0.00 2.18 1.68 69 1007.5
20260507220001 77 323 4.0 8.0 0.00 2.18 1.68 69 1007.5
20260507215501 77 269 4.0 8.0 0.00 2.18 1.68 68 1007.4
20260507215224 77 257 4.0 8.0 0.00 2.18 1.68 68 1007.3
20260507214721 77 254 3.0 8.0 0.00 2.18 1.68 68 1007.4
20260507214001 77 304 2.0 7.0 0.00 2.18 1.68 69 1007.2
20260507213500 77 232 3.0 8.0 0.00 2.18 1.68 69 1007.2
20260507212959 77 284 3.0 9.0 0.00 2.18 1.68 69 1007.1
20260507212459 77 240 3.0 8.0 0.00 2.18 1.68 68 1007.1
20260507211957 77 326 3.0 8.0 0.00 2.18 1.68 67 1007.1
20260507211457 77 242 3.0 8.0 0.00 2.18 1.68 68 1007.3
20260507211221 78 329 3.0 6.0 0.00 2.18 1.68 67 1007.3
20260507210456 78 209 3.0 6.0 0.00 2.18 1.68 66 1007.4
20260507210212 78 243 3.0 7.0 0.00 2.18 1.68 66 1007.4
20260507205449 78 287 2.0 7.0 0.00 2.18 1.68 66 1007.4
20260507205211 78 157 3.0 7.0 0.00 2.18 1.68 65 1007.2
20260507204449 78 283 3.0 7.0 0.00 2.18 1.68 65 1007.1
20260507203947 78 267 3.0 9.0 0.00 2.18 1.68 65 1007.4
20260507203444 78 210 3.0 10.0 0.00 2.18 1.68 66 1007.4
20260507202944 78 236 3.0 8.0 0.00 2.18 1.68 66 1007.4
20260507202446 78 312 3.0 8.0 0.00 2.18 1.68 66 1007.5
20260507201945 78 267 2.0 8.0 0.00 2.18 1.68 65 1007.5
20260507201658 78 270 3.0 10.0 0.00 2.18 1.68 65 1007.6
20260507200940 79 279 4.0 10.0 0.00 2.18 1.68 65 1007.6
20260507200442 79 299 4.0 8.0 0.00 2.18 1.68 65 1007.5
20260507195940 78 250 4.0 8.0 0.00 2.18 1.68 66 1007.7
20260507195440 78 272 3.0 8.0 0.00 2.18 1.68 67 1007.8
20260507194938 78 257 3.0 8.0 0.00 2.18 1.68 70 1007.9
20260507194436 77 271 2.0 8.0 0.00 2.18 1.68 69 1007.9
20260507193936 77 294 3.0 7.0 0.00 2.18 1.68 70 1008.1
20260507193436 77 240 3.0 7.0 0.00 2.18 1.68 69 1008.4
20260507192936 77 239 4.0 9.0 0.00 2.18 1.68 69 1008.3
20260507192430 77 291 4.0 9.0 0.00 2.18 1.68 68 1008.4
20260507191924 77 320 3.0 8.0 0.00 2.18 1.68 72 1008.4
20260507191418 76 316 2.0 5.0 0.00 2.18 1.68 73 1008.5
20260507191129 76 225 4.0 9.0 0.00 2.18 1.68 76 1008.6
20260507190405 75 267 5.0 11.0 0.00 2.18 1.68 74 1008.6
20260507185900 74 331 4.0 11.0 0.00 2.18 1.68 76 1008.7
20260507185353 74 233 4.0 11.0 0.00 2.18 1.68 78 1008.6
20260507184848 74 276 4.0 9.0 0.00 2.18 1.68 79 1008.6
20260507184341 73 236 3.0 11.0 0.00 2.18 1.68 83 1008.5
20260507183836 72 251 4.0 11.0 0.00 2.18 1.68 84 1008.5
20260507183330 72 326 3.0 9.0 0.00 2.18 1.68 86 1008.6
20260507182825 71 260 3.0 7.0 0.00 2.18 1.68 88 1008.5
20260507182543 71 302 3.0 7.0 0.00 2.19 1.68 89 1008.6
20260507181812 71 332 2.0 4.0 0.00 2.21 1.68 91 1008.5
20260507181306 71 320 3.0 6.0 0.00 2.22 1.68 92 1008.4
20260507180759 70 285 2.0 6.0 0.00 2.22 1.68 94 1008.4
20260507180254 70 324 2.0 6.0 0.00 2.23 1.68 93 1008.6
20260507175747 69 331 3.0 10.0 0.00 2.25 1.68 94 1008.7
20260507175500 69 332 4.0 10.0 0.00 2.25 1.68 95 1008.9
20260507174735 69 296 3.0 8.0 0.00 2.25 1.68 95 1008.9
20260507174230 69 323 4.0 9.0 0.00 2.25 1.68 96 1009.0
20260507173724 69 271 3.0 9.0 0.00 2.25 1.68 96 1009.3
20260507173218 69 270 2.0 5.0 0.00 2.25 1.68 96 1009.4
20260507172712 68 285 1.0 3.0 0.00 2.25 1.68 96 1009.4
20260507172207 68 277 2.0 6.0 0.00 2.25 1.68 96 1009.0
20260507171659 68 263 3.0 6.0 0.00 2.25 1.68 96 1009.0
20260507171154 68 331 3.0 6.0 0.00 2.25 1.68 95 1009.3
20260507170648 68 332 2.0 6.0 0.00 2.25 1.68 96 1009.3
20260507170141 68 311 2.0 4.0 0.00 2.25 1.68 96 1009.4
20260507165636 68 284 2.0 5.0 0.00 2.25 1.68 96 1009.2
20260507165129 68 246 2.0 5.0 0.00 2.25 1.68 96 1009.3
20260507164624 68 255 1.0 4.0 0.00 2.25 1.68 96 1009.2
20260507164118 68 309 1.0 4.0 0.00 2.25 1.68 96 1009.5
20260507163612 67 336 2.0 7.0 0.00 2.25 1.68 96 1009.7
20260507163106 67 271 3.0 7.0 0.00 2.25 1.68 96 1010.0
20260507162600 68 315 3.0 6.0 0.00 2.25 1.68 96 1010.3
20260507162054 68 308 3.0 8.0 0.00 2.25 1.68 96 1010.1
20260507161549 68 279 2.0 8.0 0.00 2.25 1.68 96 1010.0
20260507161041 68 323 2.0 5.0 0.00 2.25 1.68 96 1009.7
20260507160541 68 292 2.0 3.0 0.00 2.25 1.68 96 1009.8
20260507160026 68 265 2.0 4.0 0.00 2.25 1.68 96 1009.7
20260507155519 68 248 2.0 4.0 0.00 2.25 1.68 96 1009.5
20260507155013 68 346 1.0 3.0 0.00 2.25 1.68 96 1009.2
20260507154508 68 78 1.0 3.0 0.00 2.25 1.68 96 1008.8
20260507154002 67 74 1.0 3.0 0.00 2.25 1.68 96 1008.6
20260507153456 67 74 1.0 3.0 0.00 2.25 1.68 96 1008.4
20260507152949 67 74 1.0 3.0 0.01 2.25 1.68 96 1008.5
20260507152444 67 73 1.0 3.0 0.01 2.25 1.68 96 1008.5
20260507151938 67 266 1.0 2.0 0.01 2.25 1.68 96 1008.6
20260507151650 67 266 1.0 2.0 0.02 2.25 1.68 96 1008.7
20260507151147 67 266 0.0 2.0 0.02 2.25 1.68 96 1009.0
20260507150420 67 300 0.0 2.0 0.03 2.25 1.68 96 1009.3
20260507145913 67 300 1.0 3.0 0.03 2.25 1.68 96 1009.6
20260507145408 67 300 1.0 3.0 0.03 2.25 1.68 96 1010.0
20260507144903 67 300 1.0 3.0 0.03 2.25 1.68 96 1010.3
20260507144356 67 299 1.0 3.0 0.03 2.25 1.68 96 1010.4
20260507144109 67 299 1.0 4.0 0.04 2.25 1.68 96 1010.3
20260507143344 66 299 2.0 4.0 0.04 2.25 1.68 96 1010.4
20260507142838 66 325 1.0 2.0 0.03 2.24 1.67 96 1010.6
20260507142332 66 325 1.0 2.0 0.03 2.24 1.67 96 1010.5
20260507141826 66 325 1.0 3.0 0.03 2.24 1.67 96 1010.4
20260507141319 66 325 1.0 3.0 0.02 2.23 1.66 96 1010.4
20260507140814 66 325 1.0 3.0 0.02 2.22 1.65 96 1010.4
20260507140536 66 325 1.0 3.0 0.02 2.22 1.65 96 1010.4
20260507135812 66 325 1.0 3.0 0.02 2.22 1.65 96 1010.5
20260507135310 66 325 0.0 2.0 0.03 2.22 1.65 96 1010.0
20260507135032 66 325 0.0 2.0 0.04 2.22 1.65 96 1010.0
20260507134532 66 325 1.0 3.0 0.05 2.22 1.65 96 1010.1
20260507134031 66 325 1.0 3.0 0.05 2.21 1.64 96 1010.3
20260507133532 66 325 1.0 2.0 0.08 2.21 1.64 96 1010.5
20260507133030 66 325 0.0 2.0 0.13 2.21 1.64 96 1010.4
20260507132311 66 325 0.0 1.0 0.17 2.21 1.64 96 1010.4
20260507131809 66 325 0.0 2.0 0.25 2.21 1.64 96 1010.5
20260507131308 66 325 1.0 3.0 0.32 2.21 1.64 96 1010.7
20260507130806 66 325 1.0 3.0 0.43 2.20 1.63 96 1010.8
20260507130304 66 334 0.0 0.0 0.46 2.20 1.63 96 1010.4
20260507125804 66 334 0.0 2.0 0.48 2.20 1.63 96 1010.4
20260507125306 66 334 1.0 4.0 0.49 2.19 1.62 96 1010.3
20260507124805 66 334 1.0 4.0 0.49 2.18 1.62 95 1010.7
20260507124257 66 334 1.0 3.0 0.49 2.17 1.60 95 1010.7
20260507123757 66 334 2.0 6.0 0.51 2.16 1.59 95 1010.8
20260507123256 66 334 3.0 6.0 0.51 2.13 1.56 95 1011.0
20260507122756 66 332 3.0 6.0 0.50 2.08 1.51 96 1011.2
20260507122256 66 332 3.0 6.0 0.46 2.04 1.47 96 1011.0
20260507121754 66 271 2.0 5.0 0.38 1.96 1.39 96 1010.9
20260507121254 66 317 2.0 4.0 0.30 1.88 1.32 96 1010.8
20260507120754 66 310 2.0 4.0 0.19 1.77 1.21 96 1010.7
20260507120255 66 284 1.0 3.0 0.16 1.74 1.17 95 1010.4
20260507115754 66 284 1.0 2.0 0.14 1.72 1.15 95 1010.1
20260507115514 66 284 1.0 2.0 0.12 1.70 1.13 96 1010.1
20260507114754 66 284 1.0 2.0 0.11 1.69 1.12 95 1010.1
20260507114253 66 284 1.0 3.0 0.10 1.68 1.11 95 1010.2
20260507113751 66 284 1.0 3.0 0.07 1.65 1.08 96 1010.2
20260507113251 66 284 1.0 3.0 0.04 1.62 1.05 95 1010.3
20260507112751 66 284 1.0 3.0 0.00 1.58 1.02 95 1010.4
20260507112251 66 271 2.0 4.0 0.00 1.58 1.01 95 1010.4
20260507111753 66 269 1.0 4.0 0.00 1.58 1.01 95 1010.3
20260507111253 66 298 1.0 4.0 0.00 1.58 1.01 95 1010.2
20260507110753 66 298 2.0 3.0 0.00 1.58 1.01 95 1010.3
20260507110253 66 249 2.0 5.0 0.00 1.58 1.01 95 1010.4
20260507105750 66 214 1.0 5.0 0.00 1.58 1.01 95 1010.3
20260507105508 66 346 1.0 4.0 0.00 1.58 1.01 95 1010.2
20260507104749 66 296 1.0 6.0 0.00 1.58 1.01 95 1010.2
20260507104510 66 281 1.0 6.0 0.00 1.58 1.01 95 1010.4
20260507103747 66 201 1.0 6.0 0.00 1.58 1.01 95 1010.3
20260507103248 66 318 1.0 3.0 0.01 1.58 1.01 95 1010.3
20260507102747 66 317 1.0 3.0 0.01 1.58 1.01 95 1010.2
20260507102247 66 253 1.0 3.0 0.02 1.58 1.01 95 1010.1
20260507101748 66 254 0.0 3.0 0.03 1.58 1.01 95 1010.3
20260507101247 66 254 1.0 3.0 0.03 1.58 1.01 95 1010.3
20260507100748 66 254 1.0 3.0 0.03 1.58 1.01 95 1010.5
20260507100248 65 254 1.0 2.0 0.04 1.58 1.01 95 1010.2
20260507095748 65 252 1.0 3.0 0.04 1.58 1.01 95 1010.1
20260507095247 65 252 1.0 3.0 0.05 1.58 1.01 95 1010.3
20260507094747 65 290 1.0 2.0 0.05 1.58 1.01 95 1010.1
20260507094247 65 290 0.0 2.0 0.06 1.58 1.01 95 1009.9
20260507093748 65 290 1.0 2.0 0.07 1.58 1.01 95 1010.3
20260507093248 65 290 1.0 2.0 0.06 1.57 1.00 95 1010.6
20260507092748 65 290 0.0 2.0 0.06 1.57 1.00 95 1010.6
20260507092247 65 290 1.0 2.0 0.06 1.56 1.00 95 1010.6
20260507091745 65 290 1.0 3.0 0.05 1.55 0.98 95 1010.7
20260507091245 65 290 1.0 4.0 0.06 1.55 0.98 95 1010.7
20260507090745 65 290 1.0 4.0 0.06 1.55 0.98 95 1010.8
20260507090508 65 248 1.0 2.0 0.06 1.54 0.97 95 1010.6
20260507085746 65 247 1.0 3.0 0.07 1.54 0.97 95 1010.4
20260507085246 65 247 2.0 3.0 0.07 1.53 0.96 95 1010.7
20260507084746 65 247 2.0 3.0 0.09 1.53 0.96 95 1010.7
20260507084245 65 245 2.0 4.0 0.09 1.52 0.95 95 1010.4
20260507083741 65 245 1.0 4.0 0.10 1.51 0.94 95 1010.5
20260507083239 65 15 1.0 2.0 0.10 1.51 0.94 95 1010.3
20260507082737 65 15 1.0 3.0 0.11 1.51 0.94 95 1010.1
20260507082236 65 15 1.0 3.0 0.11 1.50 0.93 95 1010.2
20260507081728 65 19 1.0 3.0 0.13 1.50 0.93 95 1010.2
20260507081222 65 76 1.0 4.0 0.13 1.49 0.92 95 1010.3
20260507080723 65 196 1.0 5.0 0.15 1.49 0.92 95 1010.1
20260507080221 65 309 1.0 5.0 0.18 1.48 0.91 95 1010.3
20260507075719 65 325 1.0 4.0 0.19 1.47 0.90 95 1010.8
20260507075219 65 93 1.0 4.0 0.21 1.46 0.89 95 1010.6
20260507074717 65 92 2.0 4.0 0.22 1.44 0.87 95 1010.3
20260507074435 65 94 1.0 3.0 0.24 1.43 0.86 95 1010.3
20260507073716 65 76 1.0 3.0 0.25 1.41 0.85 95 1010.4
20260507073215 65 53 1.0 2.0 0.28 1.40 0.84 95 1010.8
20260507072715 65 53 1.0 2.0 0.36 1.40 0.83 95 1010.7
20260507072434 65 53 0.0 2.0 0.50 1.39 0.82 94 1011.0
20260507071713 65 53 0.0 0.0 0.56 1.37 0.81 94 1011.7
20260507071213 65 53 0.0 2.0 0.60 1.36 0.79 94 1011.7
20260507070711 65 53 0.0 2.0 0.62 1.33 0.77 94 1011.7
20260507070209 65 53 0.0 2.0 0.66 1.30 0.74 94 1011.7
20260507065929 65 53 1.0 2.0 0.67 1.28 0.71 94 1011.7
20260507065209 65 48 0.0 2.0 0.66 1.25 0.68 94 1011.9
20260507064709 65 47 0.0 0.0 0.63 1.22 0.66 94 1012.0
20260507064207 65 47 0.0 2.0 0.61 1.19 0.63 94 1012.2
20260507063706 65 47 1.0 2.0 0.57 1.15 0.59 94 1012.4
20260507062655 65 47 1.0 3.0 0.43 1.00 0.46 94 1012.7
20260507062149 65 47 1.0 3.0 0.32 0.89 0.34 94 1012.7
20260507061642 65 48 1.0 2.0 0.24 0.81 0.25 94 1013.0
20260507061137 65 48 1.0 2.0 0.19 0.76 0.19 94 1012.8
20260507060630 65 51 1.0 2.0 0.12 0.69 0.13 94 1012.7
20260507060125 65 51 1.0 3.0 0.06 0.63 0.07 94 1012.6
20260507055618 65 51 2.0 3.0 0.03 0.60 0.04 94 1012.8
20260507055113 65 51 1.0 3.0 0.02 0.59 0.02 94 1013.0
20260507054607 65 115 1.0 2.0 0.02 0.59 0.02 94 1012.8
20260507054101 65 115 0.0 2.0 0.01 0.58 0.01 94 1012.7
20260507053819 65 115 0.0 2.0 0.01 0.58 0.01 94 1012.3
20260507053314 65 117 0.0 1.0 0.00 0.57 0.00 94 1012.5
20260507052543 65 117 0.0 1.0 0.00 0.57 0.00 93 1012.3
20260507052258 65 117 0.0 1.0 0.00 0.57 0.00 93 1012.2
20260507051531 65 117 0.0 3.0 0.00 0.57 0.00 93 1012.1
20260507051025 65 117 0.0 3.0 0.00 0.57 0.00 93 1012.2
20260507050518 65 150 0.0 2.0 0.00 0.57 0.00 93 1012.3